Flight Track Log - Related Links

Times and Time Zones

All times are in EDT time to prevent confusion due to time zone crossing. See the N830QS flight status page for this flight to view local times or setup timezone preferences in your user account.

Time Position Orientation Groundspeed Altitude Reporting Facility
EDT Latitude Longitude Course Direction KTS MPH feet Rate Location/Type
Sun 06:21:46 PM 42.3725 -82.9697 142° Southeast 217 250 2,500  Level Cleveland Center
Sun 06:22:47 PM 42.3217 -82.9206 144° Southeast 225 259 4,900 1,807 Climbing Cleveland Center
Sun 06:23:09 PM 42.3042 -82.9197 178° South 234 269 5,000 1,343 Climbing Cleveland Center
Sun 06:23:54 PM 42.2525 -82.9225 182° South 224 258 6,400 1,935 Climbing Cleveland Center
Sun 06:24:11 PM 42.2422 -82.9208 173° South 224 258 7,000 2,354 Climbing Cleveland Center
Sun 06:25:13 PM 42.1728 -82.9186 179° South 241 277 9,500 2,419 Climbing Cleveland Center
Sun 06:26:15 PM 42.0933 -82.9167 179° South 278 320 12,000 1,935 Climbing Cleveland Center
Sun 06:27:17 PM 42.0025 -82.9717 204° Southwest 336 387 13,500 2,064 Climbing Cleveland Center
Sun 06:28:20 PM 41.9619 -83.0783 243° Southwest 323 372 16,300 2,592 Climbing Cleveland Center
Sun 06:29:22 PM 41.9203 -83.1764 240° Southwest 305 351 18,900 2,081 Climbing Cleveland Center
Sun 06:30:24 PM 41.8758 -83.2750 239° Southwest 304 350 20,600 1,548 Climbing Cleveland Center
Sun 06:31:26 PM 41.8283 -83.3786 238° Southwest 319 367 22,100 1,452 Climbing Cleveland Center
Sun 06:32:28 PM 41.7803 -83.4853 239° Southwest 330 380 23,600 1,452 Climbing Cleveland Center
Sun 06:33:30 PM 41.7308 -83.5928 238° Southwest 335 386 25,100 1,500 Climbing Cleveland Center
Sun 06:34:32 PM 41.6711 -83.7219 238° Southwest 337 388 26,700 1,355 Climbing Cleveland Center
Sun 06:35:34 PM 41.6203 -83.8325 238° Southwest 347 399 27,900 1,065 Climbing Cleveland Center
Sun 06:36:36 PM 41.5686 -83.9433 238° Southwest 348 400 28,900 968 Climbing Cleveland Center
Sun 06:37:38 PM 41.5167 -84.0564 238° Southwest 357 411 29,900 968 Climbing Cleveland Center
Sun 06:38:40 PM 41.4633 -84.1681 238° Southwest 357 411 30,900 968 Climbing Cleveland Center
Sun 06:39:42 PM 41.4172 -84.2856 242° Southwest 357 411 31,900 968 Climbing Cleveland Center
Sun 06:40:44 PM 41.3736 -84.4036 244° Southwest 356 410 32,900 1,016 Climbing Cleveland Center
Sun 06:41:46 PM 41.3203 -84.5444 243° Southwest 356 410 34,000 600 Climbing Cleveland Center
Sun 06:42:34 PM 41.2839 -84.6392 243° Southwest 360 414 34,000  Level Chicago Center
Sun 06:43:36 PM 41.2311 -84.7644 241° Southwest 383 441 34,000  Level Chicago Center
Sun 06:44:37 PM 41.1731 -84.8886 238° Southwest 391 450 34,000  Level Chicago Center
Sun 06:45:39 PM 41.1167 -85.0131 239° Southwest 392 451 34,000  Level Chicago Center
Sun 06:46:41 PM 41.0589 -85.1372 238° Southwest 392 451 34,000  Level Chicago Center
Sun 06:47:43 PM 41.0011 -85.2603 238° Southwest 392 451 34,000  Level Chicago Center
Sun 06:48:45 PM 40.9444 -85.3858 239° Southwest 393 452 34,000  Level Chicago Center
Sun 06:49:47 PM 40.8794 -85.5056 234° Southwest 396 456 34,000  Level Chicago Center
Sun 06:50:50 PM 40.8017 -85.6489 234° Southwest 397 457 34,000  Level Chicago Center
Sun 06:51:50 PM 40.7378 -85.7658 234° Southwest 395 455 34,000 295 Level Chicago Center
Sun 06:52:52 PM 40.6736 -85.8819 234° Southwest 395 455 34,600 484 Climbing Chicago Center
Sun 06:53:54 PM 40.6061 -86.0058 234° Southwest 385 443 35,000 194 Climbing Chicago Center
Sun 06:54:56 PM 40.5436 -86.1200 234° Southwest 384 442 35,000  Level Chicago Center
Sun 06:55:58 PM 40.4794 -86.2358 234° Southwest 391 450 35,000  Level Chicago Center
Sun 06:57:00 PM 40.4158 -86.3506 234° Southwest 391 450 35,000 145 Level Chicago Center
Sun 06:58:02 PM 40.3500 -86.4639 233° Southwest 393 452 35,300 976 Climbing Chicago Center
Sun 06:59:03 PM 40.2756 -86.5572 224° Southwest 377 434 37,000 1,306 Climbing Chicago Center
Sun 07:00:06 PM 40.2072 -86.6786 234° Southwest 351 404 38,000 480 Climbing Chicago Center
Sun 07:01:08 PM 40.1461 -86.7861 233° Southwest 365 420 38,000  Level Chicago Center
Sun 07:02:10 PM 40.0828 -86.8975 233° Southwest 379 436 38,000  Level Chicago Center
Sun 07:03:11 PM 40.0186 -87.0097 233° Southwest 388 447 38,000  Level Chicago Center
Sun 07:04:13 PM 39.9547 -87.1225 234° Southwest 387 445 38,000  Level Chicago Center
Sun 07:05:15 PM 39.8769 -87.2572 233° Southwest 388 447 38,000  Level Chicago Center
Sun 07:06:26 PM 39.8125 -87.3703 233° Southwest 390 449 38,000  Level Indianapolis Center
Sun 07:07:28 PM 39.7342 -87.5039 233° Southwest 390 449 38,000  Level Indianapolis Center
Sun 07:08:30 PM 39.6694 -87.6156 233° Southwest 390 449 38,000  Level Indianapolis Center
Sun 07:09:32 PM 39.6061 -87.7267 234° Southwest 389 448 38,000  Level Indianapolis Center
Sun 07:10:34 PM 39.5408 -87.8372 233° Southwest 389 448 38,000  Level Indianapolis Center
Sun 07:11:36 PM 39.4761 -87.9469 233° Southwest 387 445 38,000  Level Indianapolis Center
Sun 07:12:37 PM 39.4122 -88.0564 233° Southwest 386 444 38,000  Level Indianapolis Center
Sun 07:13:39 PM 39.3403 -88.1797 233° Southwest 380 437 38,000  Level Indianapolis Center
Sun 07:14:41 PM 39.2761 -88.2889 233° Southwest 381 438 38,000  Level Indianapolis Center
Sun 07:15:43 PM 39.2122 -88.3967 233° Southwest 380 437 38,000  Level Indianapolis Center
Sun 07:16:45 PM 39.1478 -88.5042 232° Southwest 380 437 38,000  Level Indianapolis Center
Sun 07:17:47 PM 39.0694 -88.6353 232° Southwest 381 438 38,000  Level Indianapolis Center
Sun 07:18:48 PM 39.0039 -88.7433 232° Southwest 381 438 38,000  Level Indianapolis Center
Sun 07:19:50 PM 38.9397 -88.8500 232° Southwest 381 438 38,000  Level Indianapolis Center
Sun 07:20:52 PM 38.8753 -88.9581 233° Southwest 381 438 38,000  Level Indianapolis Center
Sun 07:22:15 PM 38.7889 -89.0994 232° Southwest 381 438 38,000  Level Kansas City Center
Sun 07:23:16 PM 38.7242 -89.2044 232° Southwest 380 437 38,000  Level Kansas City Center
Sun 07:24:18 PM 38.6606 -89.3106 233° Southwest 379 436 38,000  Level Kansas City Center
Sun 07:25:21 PM 38.5856 -89.4033 224° Southwest 378 435 38,000  Level Kansas City Center
Sun 07:26:23 PM 38.4817 -89.4967 215° Southwest 379 436 38,000  Level Kansas City Center
Sun 07:27:26 PM 38.3931 -89.5742 214° Southwest 381 438 38,000  Level Kansas City Center
Sun 07:28:27 PM 38.3144 -89.6686 223° Southwest 388 447 38,000  Level Kansas City Center
Sun 07:29:28 PM 38.2467 -89.7722 230° Southwest 384 442 38,000  Level Kansas City Center
Sun 07:30:32 PM 38.1767 -89.8756 229° Southwest 384 442 38,000  Level Kansas City Center
Sun 07:31:33 PM 38.0958 -89.9958 230° Southwest 392 451 38,000  Level Kansas City Center
Sun 07:32:34 PM 38.0336 -90.0867 229° Southwest 393 452 38,000  Level Kansas City Center
Sun 07:33:38 PM 37.9486 -90.2108 229° Southwest 391 450 38,000  Level Kansas City Center
Sun 07:34:39 PM 37.8783 -90.3153 230° Southwest 390 449 38,000  Level Kansas City Center
Sun 07:35:43 PM 37.8072 -90.4192 229° Southwest 391 450 38,000  Level Kansas City Center
Sun 07:36:43 PM 37.7361 -90.5208 229° Southwest 390 449 38,000  Level Kansas City Center
Sun 07:37:44 PM 37.6658 -90.6253 230° Southwest 390 449 38,000  Level Kansas City Center
Sun 07:38:47 PM 37.5936 -90.7306 229° Southwest 391 450 38,000  Level Kansas City Center
Sun 07:39:51 PM 37.5167 -90.8403 229° Southwest 394 453 38,000  Level Kansas City Center
Sun 07:40:51 PM 37.4447 -90.9444 229° Southwest 394 453 38,000  Level Kansas City Center
Sun 07:41:52 PM 37.3583 -91.0703 229° Southwest 394 453 38,000  Level Kansas City Center
Sun 07:42:57 PM 37.2853 -91.1733 228° Southwest 394 453 38,000  Level Kansas City Center
Sun 07:43:57 PM 37.2128 -91.2792 229° Southwest 395 455 38,000  Level Kansas City Center
Sun 07:45:01 PM 37.1394 -91.3836 229° Southwest 395 455 38,000  Level Kansas City Center
Sun 07:46:02 PM 37.0667 -91.4878 229° Southwest 395 455 38,000  Level Kansas City Center
Sun 07:47:03 PM 36.9933 -91.5892 228° Southwest 394 453 38,000  Level Kansas City Center
Sun 07:48:07 PM 36.9208 -91.6922 229° Southwest 393 452 38,000  Level Kansas City Center
Sun 07:48:44 PM 36.8628 -91.7728 228° Southwest 395 455 38,000  Level Memphis Center
Sun 07:49:46 PM 36.7881 -91.8744 227° Southwest 395 455 38,000  Level Memphis Center
Sun 07:50:48 PM 36.7122 -91.9750 227° Southwest 395 455 38,000  Level Memphis Center
Sun 07:51:50 PM 36.6361 -92.0781 227° Southwest 396 456 38,000  Level Memphis Center
Sun 07:52:51 PM 36.5603 -92.1806 227° Southwest 398 458 38,000  Level Memphis Center
Sun 07:53:53 PM 36.4742 -92.2961 227° Southwest 399 459 38,000  Level Memphis Center
Sun 07:54:55 PM 36.3975 -92.3986 227° Southwest 400 460 38,000  Level Memphis Center
Sun 07:55:57 PM 36.3208 -92.4975 226° Southwest 404 465 38,000  Level Memphis Center
Sun 07:56:58 PM 36.2442 -92.5994 227° Southwest 403 464 38,000  Level Memphis Center
Sun 07:58:00 PM 36.1672 -92.7036 228° Southwest 404 465 38,000  Level Memphis Center
Sun 07:59:02 PM 36.0906 -92.8050 227° Southwest 405 466 38,000  Level Memphis Center
Sun 08:00:03 PM 35.9978 -92.9267 227° Southwest 405 466 38,000  Level Memphis Center
Sun 08:01:05 PM 35.9208 -93.0281 227° Southwest 406 467 38,000  Level Memphis Center
Sun 08:02:07 PM 35.8436 -93.1283 226° Southwest 406 467 38,000  Level Memphis Center
Sun 08:03:08 PM 35.7653 -93.2303 227° Southwest 408 470 38,000  Level Memphis Center
Sun 08:04:10 PM 35.6892 -93.3306 227° Southwest 408 470 38,000  Level Memphis Center
Sun 08:05:12 PM 35.6106 -93.4317 226° Southwest 409 471 38,000  Level Memphis Center
Sun 08:06:14 PM 35.5161 -93.5525 226° Southwest 409 471 38,000  Level Memphis Center
Sun 08:07:15 PM 35.4364 -93.6533 226° Southwest 411 473 38,000  Level Memphis Center
Sun 08:08:17 PM 35.3592 -93.7522 226° Southwest 411 473 38,000  Level Memphis Center
Sun 08:09:19 PM 35.2797 -93.8525 226° Southwest 411 473 38,000  Level Memphis Center
Sun 08:10:20 PM 35.2011 -93.9544 227° Southwest 410 472 38,000  Level Memphis Center
Sun 08:11:22 PM 35.1206 -94.0567 226° Southwest 413 475 38,000  Level Memphis Center
Sun 08:12:24 PM 35.0333 -94.1667 226° Southwest 412 474 38,000  Level Memphis Center
Sun 08:13:25 PM 34.9778 -94.2900 241° Southwest 419 482 38,000  Level Memphis Center
Sun 08:14:27 PM 34.9219 -94.4367 245° Southwest 426 490 38,000  Level Memphis Center
Sun 08:15:29 PM 34.8703 -94.5647 244° Southwest 426 490 38,000  Level Memphis Center
Sun 08:16:05 PM 34.8469 -94.6275 246° West 419 482 38,000  Level Fort Worth Center
Sun 08:17:07 PM 34.7864 -94.7797 244° Southwest 417 480 38,000 -242 Level Fort Worth Center
Sun 08:18:09 PM 34.7358 -94.9092 245° Southwest 423 487 37,500 -1,258 Descending Fort Worth Center
Sun 08:19:11 PM 34.6853 -95.0372 244° Southwest 424 488 35,400 -1,935 Descending Fort Worth Center
Sun 08:20:13 PM 34.6328 -95.1686 244° Southwest 434 499 33,500 -1,935 Descending Fort Worth Center
Sun 08:21:15 PM 34.5803 -95.2994 244° Southwest 436 502 31,400 -2,112 Descending Fort Worth Center
Sun 08:22:18 PM 34.5133 -95.4539 242° Southwest 440 506 29,100 -2,064 Descending Fort Worth Center
Sun 08:23:20 PM 34.4256 -95.5578 224° Southwest 448 516 27,100 -2,032 Descending Fort Worth Center
Sun 08:24:22 PM 34.3261 -95.6625 221° Southwest 434 499 24,900 -1,500 Descending Fort Worth Center
Sun 08:25:24 PM 34.2378 -95.7583 222° Southwest 427 491 24,000 -1,065 Descending Fort Worth Center
Sun 08:26:26 PM 34.1503 -95.8525 222° Southwest 424 488 22,700 -1,548 Descending Fort Worth Center
Sun 08:27:28 PM 34.0672 -95.9425 222° Southwest 422 486 20,800 -1,887 Descending Fort Worth Center
Sun 08:28:30 PM 33.9833 -96.0342 222° Southwest 412 474 18,800 -2,129 Descending Fort Worth Center
Sun 08:29:32 PM 33.8867 -96.1367 221° Southwest 389 448 16,400 -2,177 Descending Fort Worth Center
Sun 08:30:34 PM 33.8092 -96.2175 221° Southwest 362 417 14,300 -1,887 Descending Fort Worth Center
Sun 08:31:36 PM 33.7325 -96.2961 220° Southwest 342 394 12,500 -1,645 Descending Fort Worth Center
Sun 08:32:38 PM 33.6622 -96.3717 222° Southwest 336 387 10,900 -1,452 Descending Fort Worth Center
Sun 08:33:40 PM 33.6017 -96.4364 222° Southwest 288 331 9,500 -1,344 Descending Fort Worth Center
Sun 08:34:43 PM 33.5397 -96.5033 222° Southwest 280 322 8,100 -1,296 Descending Fort Worth Center
Sun 08:35:45 PM 33.4833 -96.5603 220° Southwest 271 312 6,800 -1,210 Descending Fort Worth Center
Sun 08:36:47 PM 33.4272 -96.6192 221° Southwest 254 292 5,600 -1,306 Descending Fort Worth Center
Sun 08:37:49 PM 33.3908 -96.6872 237° Southwest 255 293 4,100 -774 Descending Fort Worth Center
Sun 08:38:51 PM 33.3344 -96.7300 212° Southwest 237 273 4,000 -48 Descending Fort Worth Center
Sun 08:39:53 PM 33.2706 -96.7536 197° South 238 274 4,000 -435 Level Fort Worth Center
Sun 08:40:55 PM 33.2222 -96.7708 197° South 199 229 3,100 -484 Descending Fort Worth Center
Sun 08:41:57 PM 33.1661 -96.7900 196° South 184 212 3,000 -48 Descending Fort Worth Center
Sun 08:42:59 PM 33.1169 -96.8125 201° Southwest 189 217 3,000 -290 Level Fort Worth Center
Sun 08:44:01 PM 33.0706 -96.8467 212° Southwest 184 212 2,400 -484 Descending Fort Worth Center
Sun 08:45:03 PM 33.0306 -96.8608 197° South 153 176 2,000 -581 Descending Fort Worth Center
Sun 08:46:05 PM 32.9994 -96.8494 163° South 110 127 1,200 -629 Descending Fort Worth Center
Sun 08:47:07 PM 32.9725 -96.8372 159° South 105 121 700 -484 Descending Fort Worth Center
Sun 08:49:00 PM 32.9667 -96.8333 164° South  Level FlightAware Approximate

Login

Don't have an account? Register now (free) for customized features, flight alerts, and more!